Regional Weather Roundup
Issued by NWS Cleveland, OH

Home | Current Version | Previous Version | Graphics & Text | Print | Product List | Glossary On
Versions: 1 2 3 4 5 6 7 8 9 10 11 12 13 14 15 16 17 18 19 20 21 22 23 24 25 26 27 28 29 30 31 32 33 34 35 36 37 38 39 40 41 42 43 44 45 46 47 48 49 50
000
ASUS41 KCLE 282212
RWRCLE
OHIO REGIONAL WEATHER ROUNDUP
NATIONAL WEATHER SERVICE WILMINGTON, OH
600 PM EDT WED JUN 28 2017

NOTE: "FAIR" INDICATES FEW OR NO CLOUDS BELOW 12,000 FEET WITH NO
SIGNIFICANT WEATHER AND/OR OBSTRUCTIONS TO VISIBILITY.

OHZ001>008-015>018-024>027-034-035-043-044-282300-
   NORTHWEST OHIO

CITY           SKY/WX    TMP DP  RH WIND       PRES   REMARKS
DEFIANCE       FAIR      77  51  40 S13G21    29.97F
FINDLAY        FAIR      79  50  36 S16G23    30.00F
TOLEDO EXPRESS FAIR      77  51  40 S10G23    29.97F
TOLEDO EXEC    FAIR      78  50  37 SW14      29.99F
LIMA           FAIR      76  51  41 SW12      30.02F
$$

OHZ009>014-019>023-028>033-038-089-282300-
   NORTHEAST OHIO

CITY           SKY/WX    TMP DP  RH WIND       PRES   REMARKS
CLE-HOPKINS    CLOUDY    78  50  37 S14       30.07F
CLE-LAKEFRONT  FAIR      77  49  37 SW13      30.04F
CUY CO. ARPT   CLOUDY    77  50  38 MISG      30.07F
LORAIN-ELYRIA  FAIR      75  47  36 SW9       30.05F
ASHTABULA      FAIR      74  49  41 SW9       30.07F
AKRON-CANTON   PTSUNNY   76  51  41 S13       30.09F
WOOSTER        FAIR      75  48  38 SW13      30.09F
MANSFIELD      FAIR      75  51  43 S12       30.08F
YOUNGSTOWN     CLOUDY    73  50  44 SW8       30.09F
$$

OHZ042-051>053-060>062-070>072-077>081-282300-
  SOUTHWEST OHIO

CITY           SKY/WX    TMP DP  RH WIND       PRES   REMARKS
CINC-COVINGTON PTSUNNY   77  55  46 S9        30.05F
CINC-LUNKEN    FAIR      79  57  46 S10       30.05F
HAMILTON       FAIR      80  54  40 VRB7      30.05F
DAYTON         PTSUNNY   78  53  41 S13G23    30.03F
WRIGHT-PAT AFB PTSUNNY   79  54  41 S15G21    30.03F
DAYTON GENERAL FAIR      78  53  41 S14       30.05F
WILMINGTON     FAIR      77  55  46 S10       30.06F
$$

OHZ036-037-039>041-045>050-054>059-063>069-073>076-082>088-282300-
  CENTRAL AND SOUTHEAST OHIO

CITY           SKY/WX    TMP DP  RH WIND       PRES   REMARKS
COLUMBUS       PTSUNNY   78  55  44 S10       30.07F
OSU AIRPORT    FAIR      77  52  41 S10       30.06F
BOLTON FIELD   SUNNY     77  54  44 SW10      30.08F
RICKENBACK AFB FAIR      77  52  41 S10       30.07F
NEWARK         FAIR      77  50  38 S9        30.08F
MARION         FAIR      77  49  37 S13       30.05F
LANCASTER      FAIR      75  56  51 S12G17    30.09F
ZANESVILLE     FAIR      76  52  43 S10       30.09F
NEW PHILLY     FAIR      76  52  43 S9        30.10F
$$



USA.gov is the U.S. government's official web portal to all federal, state and local government web resources and services.